Location: Brachstadt
(48.6975°N, 10.6755°E)
Time: 07:54:27
(UTC+00:00)

In-Cosmos 22 - Pass Details

Date: 18 September 2020
Orbit: 785 x 877 km, 81.2° (Epoch: 24 October)

Event Time Altitude Azimuth Distance (km) Brightness Sun altitude
Rises 19:08:16 0° 346° (NNW) 3,289 7.8 -17.7°
Reaches altitude 10° 19:10:38 10° 344° (NNW) 2,356 7.1 -18.0°
Maximum altitude 19:15:54 68° 262° (W) 850 4.3 -18.8°
Drops below altitude 10° 19:21:10 10° 180° (S) 2,365 6.3 -19.6°
Enters shadow 19:21:22 - 180° (S) 2,442 6.3 -19.6°
